Weather History for Kuwait, Kuwait

Change the Weather History Date:

Friday, June 28, 2013

  Actual Average Record
Temperature  
Mean Temperature 102 °F -  
Max Temperature 114 °F 110 °F 120 °F (2008)
Min Temperature 89 °F 85 °F 77 °F (2000)
Cooling Degree Days 36    
Growing Degree Days 52 (Base 50)    
Moisture  
Dew Point 31 °F    
Average Humidity 8    
Maximum Humidity 13    
Minimum Humidity 5    
Precipitation  
Precipitation 0.00 in 0.00 in - ()
Sea Level Pressure  
Sea Level Pressure 29.41 in    
Wind  
Wind Speed 11 mph ()    
Max Wind Speed 18 mph    
Max Gust Speed -    
Visibility 3.9 miles    
Events      
Averages and records for this station are not official NWS values.
T = Trace of Precipitation, MM = Missing Value Source: Averaged Metar Reports

Daily Weather History Graph

Daily Weather History Graph

Search for Another Location

Airport:

Trip Planner

Search our weather history database for the weather conditions in past years. The results will help you decide how hot, cold, wet, or windy it might be!

Date:

Astronomy

Jun. 28, 2013 Rise Set
Actual Time 4:51 AM AST 6:51 PM AST
Civil Twilight 4:24 AM AST 7:18 PM AST
Nautical Twilight 3:51 AM AST 7:51 PM AST
Astronomical Twilight 3:16 AM AST 8:26 PM AST
Moon 10:38 PM AST (6/28) 10:06 AM AST (6/28)
Length of Visible Light 14h 54m
Length of Day
13h 59m
Waning Gibbous, 69% of the Moon is Illuminated
Jun 28
Waning Gibbous
Jun 30
Last Quarter
Jul 8
New
Jul 16
First Quarter
Jul 22
Full

Hourly Weather History & Observations

Time (AST) Temp. Dew Point Humidity Pressure Visibility Wind Dir Wind Speed Gust Speed Precip Events Conditions
12:00 AM 100.4 °F 30.2 °F 9% 29.44 in - NW 11.5 mph - N/A   Clear
1:00 AM 95.0 °F 32.0 °F 11% 29.44 in - West 10.4 mph - N/A   Clear
2:00 AM 91.4 °F 32.0 °F 12% 29.42 in 5.0 mi West 6.9 mph - N/A   Clear
3:00 AM 91 °F 32 °F 6% 29.42 in 5 mi West 10.4 mph - -   Haze
3:00 AM 91.4 °F 32.0 °F 12% 29.42 in 5.0 mi West 10.4 mph - N/A   Clear
4:00 AM 89.6 °F 32.0 °F 13% 29.42 in 3.7 mi West 9.2 mph - N/A   Clear
5:00 AM 91.4 °F 32.0 °F 12% 29.44 in 4.3 mi WNW 11.5 mph - N/A   Clear
6:00 AM 91.4 °F 32.0 °F 12% 29.44 in 5.0 mi WNW 10.4 mph - N/A   Clear
7:00 AM 95.0 °F 32.0 °F 11% 29.44 in - West 9.2 mph - N/A   Clear
8:00 AM 100.4 °F 32.0 °F 9% 29.44 in - WNW 13.8 mph - N/A   Clear
9:00 AM 104.0 °F 30.2 °F 8% 29.44 in - WNW 15.0 mph - N/A   Clear
10:00 AM 107.6 °F 30.2 °F 7% 29.42 in - NNW 15.0 mph - N/A   Clear
11:00 AM 109.4 °F 32.0 °F 7% 29.42 in 5.0 mi NNW 16.1 mph - N/A   Clear
12:00 PM 111.2 °F 26.6 °F 5% 29.42 in 5.0 mi NNW 12.7 mph - N/A   Clear
1:00 PM 113.0 °F 26.6 °F 5% 29.39 in 5.0 mi NNW 16.1 mph - N/A   Clear
2:00 PM 114.8 °F 28.4 °F 5% 29.39 in 5.0 mi North 15.0 mph - N/A   Clear
3:00 PM 114.8 °F 26.6 °F 5% 29.36 in 5.0 mi NW 18.4 mph - N/A   Clear
4:00 PM 113.0 °F 32.0 °F 6% 29.36 in 2.5 mi NNW 17.3 mph - N/A   Light Haze
5:00 PM 113.0 °F 30.2 °F 6% 29.36 in 2.5 mi NNW 18.4 mph - N/A   Light Haze
6:00 PM 111.2 °F 30.2 °F 6% 29.36 in 1.9 mi NNW 18.4 mph - N/A   Light Haze
7:00 PM 109.4 °F 30.2 °F 6% 29.36 in 1.9 mi NW 13.8 mph - N/A   Light Haze
8:00 PM 107.6 °F 32.0 °F 7% 29.39 in 2.5 mi NW 13.8 mph - N/A   Light Haze
9:00 PM 105.8 °F 33.8 °F 8% 29.39 in 3.1 mi NW 15.0 mph - N/A   Light Haze
10:00 PM 105.8 °F 33.8 °F 8% 29.39 in 3.7 mi NW 11.5 mph - N/A   Clear
11:00 PM 102.2 °F 33.8 °F 9% 29.39 in 3.7 mi WNW 6.9 mph - N/A   Clear